Location: Street
(51.1247°N, 2.7429°W)
Time: 05:21:42
(UTC+01:00)

CAS-6 - Pass Details

Date: 04 April 2023
Orbit: 610 x 632 km, 97.9° (Epoch: 29 May)

Event Time Altitude Azimuth Distance (km) Brightness Sun altitude
Exits shadow 21:53:59 17° 64° (ENE) 1,575 ? -18.8°
Maximum altitude 21:54:20 18° 58° (ENE) 1,569 ? -18.8°
Drops below altitude 10° 21:57:13 10° 17° (NNE) 2,015 ? -19.2°
Sets 22:00:01 0° 358° (N) 2,932 ? -19.5°
